Regional Weather Roundup
Issued by NWS

Home | Current Version | Previous Version | Graphics & Text | Print | Product List | Glossary On
Versions: 1 2 3 4 5 6 7 8 9 10 11 12 13 14 15 16 17 18 19 20 21 22 23 24 25 26 27
000
ASUS45 KBOU 200707
RWRCO

WEATHER ROUNDUP FOR COLORADO
NATIONAL WEATHER SERVICE DENVER/BOULDER CO
100 AM MDT WED SEP 20 2017

NOTE: "FAIR" INDICATES FEW OR NO CLOUDS BELOW 12000 FEET WITH NO
SIGNIFICANT WEATHER AND/OR OBSTRUCTIONS TO VISIBILITY.

COZ001>005-013-030-031-200800-
...NORTHWEST COLORADO...

CITY           SKY/WX    TMP DP  RH WIND       PRES   REMARKS
CRAIG          CLOUDY    41  36  82 E3        30.04S
HAYDEN         LGT RAIN  37  35  92 SE8       30.06F
MEEKER         FAIR      41  37  86 SE3       30.02R
RABBIT EARS PA LGT SNOW  28  28 100 W10G18    30.09S VSB 3/4 WCI  19
STEAMBOAT SPGS CLOUDY    33  33  99 CALM      30.06R
WALDEN         CLOUDY    34  32  93 E3        30.07R
$$

COZ006>008-011-200800-
...WEST CENTRAL VALLEYS...

CITY           SKY/WX    TMP DP  RH WIND       PRES   REMARKS
GRAND JUNCTION MOCLDY    60  36  40 NE6       29.88R
MONTROSE       FAIR      54  33  45 SE9       29.94R
EAGLE          FAIR      53  33  46 CALM      29.97R
RIFLE          FAIR      52  36  54 NW7       29.94R
DELTA          FAIR      65  30  26 S5        29.88R
NUCLA          FAIR      59  27  29 SE3       29.98S
$$

COZ017>023-064>068-200800-
...SOUTHWEST COLORADO...

CITY           SKY/WX    TMP DP  RH WIND       PRES   REMARKS
DURANGO        FAIR      45  28  51 NE6       30.04R
CORTEZ         FAIR      64  21  19 SW15      29.98R
PAGOSA SPRINGS FAIR      45  26  47 CALM      30.11R
TELLURIDE      FAIR      55  20  26 CALM      30.18S
WOLF CREEK PAS FAIR      37  16  41 SW25G38   30.30S
$$

COZ009-010-012-014-032>034-037-058>063-200800-
...CENTRAL COLORADO...

CITY           SKY/WX    TMP DP  RH WIND       PRES   REMARKS
ASPEN          MOCLDY    57  29  34 NW6       29.96S
BUENA VISTA    FAIR      61  21  21 SE7       29.99S
COPPER MTN     CLOUDY    45  23  42 SW13G30   30.21S
BERTHOUD PASS  FAIR      34  28  80 W38G48    30.14F WCI  19
COTTONWOOD PAS FAIR      55  18  22 W32G55    30.05S
GUNNISON       FAIR      46  25  43 VRB3      30.03S
KREMMLING      MOCLDY    45  34  65 N3        30.04R
LEADVILLE      FAIR      47  21  35 SW6       30.08R
SALIDA         FAIR      62  18  18 SW8       30.05R
SUNLIGHT       FAIR      39  28  65 SW14G24   30.16R
WILKERSON PASS FAIR      43  19  39 SW17G26   30.17R
$$

COZ069>075-200800-
...SAN LUIS VALLEY/SANGRE DE CRISTO MOUNTAINS...

CITY           SKY/WX    TMP DP  RH WIND       PRES   REMARKS
ALAMOSA        FAIR      52  22  30 S15       30.03R
DEL NORTE      FAIR      58  20  23 W14G20    30.05R
LA VETA PASS   FAIR      50  16  25 S28G45    30.24R
SAGUACHE       FAIR      39  28  65 NE7       30.05R
$$

COZ035-036-038>040-200800-
...NORTHERN COLORADO FRONT RANGE...

CITY           SKY/WX    TMP DP  RH WIND       PRES   REMARKS
DENVER INTL AP FAIR      42  28  57 S8        29.89R
DMNS CITY PARK   N/A     48  31  52 E10       29.89R
AURORA         CLEAR     42  28  56 SE8       29.89R
FRONT RANGE AP FAIR      45  32  61 SE8       29.90R
ERIE MUNI ARPT FAIR      49  31  48 N3        29.95R
BOULDER MUN AP FAIR      46  32  57 N5        29.89R
CENTENNIAL     FAIR      47  30  51 E8        29.88R
BROOMFIELD     FAIR      48  32  53 SE8       29.91R
FORT COLLINS   FAIR      50  32  50 CALM      29.89R
LONGMONT       FAIR      47  33  59 E3        29.90R
$$

COZ041-046-047-076>085-087-088-200800-
...PIKES PEAK/PALMER DIVIDE AND SOUTHERN FOOTHILLS...

CITY           SKY/WX    TMP DP  RH WIND       PRES   REMARKS
COLO. SPRINGS  FAIR      46  31  55 NE7       29.91R
A. F. ACADEMY  FAIR      43  30  60 E5        29.90R
SCHRIEVER AFB  FAIR      44  29  55 MISG      29.91R
CHEYENNE MTN   NOT AVBL
ELLICOTT         N/A    N/A N/A N/A E16       29.89R
FALCON         FAIR      42  29  59 N8        29.94R
FORT CARSON    FAIR      48  31  51 W3        29.88R
LIMON          FAIR      42  30  62 N9        29.91R
MONUMENT HILL  FAIR      37  30  75 SE14      29.93S
CANON CITY     CLEAR     54  36  50 NE5       29.90R
WALSENBURG     FAIR      52  34  50 NW10      29.94R
TRINIDAD       FAIR      65  24  21 N5        29.89R
$$

COZ042>045-048>051-090-091-200800-
...NORTHEAST COLORADO...

CITY           SKY/WX    TMP DP  RH WIND       PRES   REMARKS
GREELEY ARPT   FAIR      48  35  60 W7        29.89R
AKRON          FAIR      47  28  47 NW12      29.89R
BURLINGTON     FAIR      47  32  56 NW6       29.88R
WRAY           FAIR      46  32  57 W7        29.86R
YUMA           FAIR      43  30  61 W7        29.87R
STERLING       FAIR      43  32  65 W3        29.86R
HOLYOKE        NOT AVBL
FORT MORGAN    FAIR      51  32  48 NW16G26   29.88S
$$

COZ086-089-092>099-200800-
...SOUTHEAST COLORADO...

CITY           SKY/WX    TMP DP  RH WIND       PRES   REMARKS
PUEBLO         FAIR      52  33  48 S6        29.89R
LA JUNTA       FAIR      55  32  41 NE13      29.88R
LAMAR          FAIR      56  33  42 NE13      29.85R
SPRINGFIELD      N/A     56  39  53 N18G31    29.87
$$




USA.gov is the U.S. government's official web portal to all federal, state and local government web resources and services.